Home > Weather > Bellingham > Past weeks

Flag for USA Past Weather in Bellingham, Washington, USA — Yesterday and Last 2 Weeks

Now
64 °F

Clear.


Feels Like: 64 °F
Forecast: 61 / 74 °F
Wind: 12 mph from South

Location: Bellingham International Airport

Current Time: Jul 25, 2016 at 11:34:56 PM

Latest Report: Jul 25, 2016 at 10:53 PM


Visibility: 10 mi

Pressure: 30.04 "Hg

Humidity: 78%

Dew Point: 57 °F

Location of BellinghamLocation

Past Weather in Bellingham — Graph

°F

Bellingham Temperature Yesterday

Maximum temperature yesterday: 77 °F (at 3:53 PM)
Minimum temperature yesterday: 53 °F (at 3:53 AM)
Average temperature yesterday: 66 °F

High & Low Weather Summary for the Past Weeks

 TemperatureHumidityPressure
High79 °F (Jul 21, 4:53 PM)97% (Jul 12, 1:53 AM)30.27 "Hg (Jul 12, 1:53 AM)
Low51 °F (Jul 15, 2:53 AM)39% (Jul 13, 6:53 PM)29.91 "Hg (Jul 17, 4:53 PM)
Average65 °F71%30.10 "Hg
* Reported Jul 10 9:53 PM — Jul 25 9:53 PM, Bellingham, Weather by CustomWeather, © 2016

Note: Actual official high and low records may vary slightly from our data, if they occured in-between our weather recording intervals... More about our weather records

Advertising

Bellingham Weather History for the Previous 24 Hours

Scroll right to see more
 ConditionsComfort  
Time TempWeatherWind HumidityBarometerVisibility
9:53 PM
Mon, Jul 25
65 °FSunny.13 mph78%30.04 "Hg10 mi
8:53 PM66 °FSunny.10 mph75%30.03 "Hg10 mi
7:53 PM69 °FSunny.8 mph70%30.03 "Hg10 mi
6:53 PM71 °FSunny.9 mph68%30.03 "Hg10 mi
5:53 PM76 °FSunny.9 mph58%30.04 "Hg10 mi
4:53 PM77 °FSunny.5 mph58%30.04 "Hg10 mi
3:53 PM78 °FSunny.6 mph54%30.05 "Hg10 mi
2:53 PM77 °FSunny.7 mph58%30.06 "Hg10 mi
1:53 PM75 °FSunny.6 mph55%30.07 "Hg10 mi
12:53 PM72 °FSunny.8 mph61%30.08 "Hg10 mi
11:53 AM68 °FSunny.9 mph70%30.09 "Hg10 mi
10:53 AM65 °FSunny.8 mph78%30.09 "Hg10 mi
9:53 AM64 °FSunny.7 mph81%30.09 "Hg10 mi
8:53 AM61 °FSunny.6 mph83%30.08 "Hg10 mi
7:53 AM62 °FSunny.7 mph83%30.07 "Hg10 mi
6:53 AM61 °FSunny.9 mph87%30.06 "Hg10 mi
5:53 AM60 °FClear.5 mph86%30.05 "Hg10 mi
4:53 AM60 °FClear.3 mph86%30.05 "Hg10 mi
3:53 AM61 °FClear.5 mph81%30.04 "Hg10 mi
2:53 AM61 °FClear.6 mph81%30.03 "Hg10 mi
1:53 AM62 °FClear.5 mph80%30.03 "Hg10 mi
12:53 AM63 °FClear.6 mph78%30.03 "Hg10 mi
11:53 PM
Sun, Jul 24
64 °FClear.5 mph78%30.03 "Hg10 mi
Weather by CustomWeather, © 2016

See weather overviewHow to use our weather pages